M I D A S
Marine Information and Data Acquisition System
Tripno 712 of the Zeeleeuw from 2004-05-05 06:36:16 to 2004-05-05 12:16:44
Back to CruiseResearch ActivitiesStationsMapUnderway DataData graphs

EquipmentUnitsComments
TimeDGPSUTC
LatitudeDGPSDM.mWGS84
LongitudeDGPSDM.mWGS84
SpeedMeteo Stationm/sRelative wind speed
DirectionMeteo StationdegRelative wind direction
TemperatureMeteo Stationdeg CelciusAir temperature
PressureMeteo StationPaAtmospheric pressure
HumidityMeteo Station%Relative humidity
Missing or incorrect values are displayed as -999
Metereological data collected by the RV Zeeleeuw from 2004-05-05 06:36:16 to 2004-05-05 12:16:44
Time Latitude Longitude Speed Direction Temperature Pressure Humidity
2004-05-05 06:37 51°13.632 2°55.965 4.9 83 7.2 98240 81
2004-05-05 06:38 51°13.663 2°55.835 4.6 102 7.1 98230 81
2004-05-05 06:39 51°13.67 2°55.755 2.9 147 7.2 98240 81
2004-05-05 06:40 51°13.675 2°55.76 8.4 167 7.2 98250 80
2004-05-05 06:41 51°13.725 2°55.724 5.1 209 7.2 98260 80
2004-05-05 06:42 51°13.846 2°55.649 2.3 144 7.2 98240 80
2004-05-05 06:43 51°13.988 2°55.609 2.6 199 7.3 98250 80
2004-05-05 06:44 51°14.082 2°55.486 4.2 230 7.4 98230 80
2004-05-05 06:45 51°14.215 2°55.338 2.9 289 7.4 98240 79
2004-05-05 06:46 51°14.343 2°55.111 3 255 7.4 98240 79
2004-05-05 06:47 51°14.456 2°54.816 9.9 321 7.4 98240 78
2004-05-05 06:48 51°14.481 2°54.477 9.5 313 7.5 98220 79
2004-05-05 06:49 51°14.47 2°54.286 11.5 272 7.5 98230 79
2004-05-05 06:50 51°14.48 2°54.156 9.7 270 7.5 98240 79
2004-05-05 06:51 51°14.491 2°54.053 11.3 263 7.5 98240 79
2004-05-05 06:52 51°14.499 2°53.97 10.4 271 7.5 98240 79
2004-05-05 06:53 51°14.505 2°53.9 7.3 256 7.5 98240 80
2004-05-05 06:54 51°14.568 2°53.812 5.7 233 7.5 98250 80
2004-05-05 06:55 51°14.742 2°53.689 3.3 217 7.3 98240 79
2004-05-05 06:56 51°14.937 2°53.541 5.2 239 7.4 98240 80
2004-05-05 06:57 51°15.138 2°53.453 4 235 7.4 98240 80
2004-05-05 06:58 51°15.34 2°53.324 4.9 242 7.5 98240 80
2004-05-05 06:59 51°15.552 2°53.198 3.5 250 7.5 98240 80
2004-05-05 07:00 51°15.76 2°53.071 3.4 249 7.5 98250 80
2004-05-05 07:01 51°15.966 2°52.934 5.1 228 7.4 98240 79
2004-05-05 07:02 51°16.169 2°52.8 5.1 214 7.5 98240 80
2004-05-05 07:03 51°16.38 2°52.675 6.1 230 7.5 98240 80
2004-05-05 07:04 51°16.588 2°52.564 4.2 218 7.5 98240 80
2004-05-05 07:05 51°16.79 2°52.459 5 231 7.4 98240 80
2004-05-05 07:06 51°16.991 2°52.359 4.8 215 7.4 98240 80
2004-05-05 07:07 51°17.192 2°52.249 3.6 205 7.4 98230 80
2004-05-05 07:08 51°17.392 2°52.127 3.5 248 7.4 98240 80
2004-05-05 07:09 51°17.575 2°51.942 7 226 7.5 98230 81
2004-05-05 07:10 51°17.752 2°51.767 4.4 237 7.5 98230 81
2004-05-05 07:11 51°17.944 2°51.577 5.6 249 7.6 98230 81
2004-05-05 07:12 51°18.132 2°51.394 4.3 250 7.6 98220 81
2004-05-05 07:13 51°18.325 2°51.203 7.8 249 7.8 98230 82
2004-05-05 07:14 51°18.52 2°51.008 5.9 254 7.6 98230 80
2004-05-05 07:15 51°18.711 2°50.816 7.3 254 7.6 98210 81
2004-05-05 07:16 51°18.897 2°50.621 5.9 259 7.7 98210 82
2004-05-05 07:17 51°19.092 2°50.423 9.9 236 7.7 98210 81
2004-05-05 07:18 51°19.283 2°50.233 6.8 247 7.7 98220 80
2004-05-05 07:19 51°19.453 2°49.991 8.2 246 7.7 98220 81
2004-05-05 07:20 51°19.608 2°49.708 10.8 260 7.8 98210 81
2004-05-05 07:21 51°19.714 2°49.386 16.6 297 7.8 98190 81
2004-05-05 07:22 51°19.77 2°48.997 14.5 305 7.8 98180 80
2004-05-05 07:23 51°19.807 2°48.625 15.7 291 7.9 98170 81
2004-05-05 07:24 51°19.85 2°48.224 17.5 291 7.8 98190 80
2004-05-05 07:25 51°19.893 2°47.841 18 296 7.8 98160 80
2004-05-05 07:26 51°19.94 2°47.444 15.6 292 7.8 98160 80
2004-05-05 07:27 51°19.986 2°47.05 15.4 304 7.8 98190 81
2004-05-05 07:28 51°20.035 2°46.658 15.5 293 7.7 98160 80
2004-05-05 07:29 51°20.092 2°46.28 14.3 279 7.6 98170 80
2004-05-05 07:30 51°20.176 2°45.903 13.9 296 7.7 98180 81
2004-05-05 07:31 51°20.25 2°45.518 19.3 298 7.7 98170 81
2004-05-05 07:32 51°20.306 2°45.121 17.7 291 7.6 98150 81
2004-05-05 07:33 51°20.363 2°44.729 13 293 7.6 98170 80
2004-05-05 07:34 51°20.42 2°44.339 15.9 294 7.6 98160 81
2004-05-05 07:35 51°20.472 2°43.953 14.3 298 7.6 98140 81
2004-05-05 07:36 51°20.525 2°43.57 14.3 296 7.6 98140 81
2004-05-05 07:37 51°20.578 2°43.189 16.6 290 7.5 98140 81
2004-05-05 07:38 51°20.632 2°42.795 12.7 298 7.6 98160 81
2004-05-05 07:39 51°20.687 2°42.411 12.4 297 7.6 98180 82
2004-05-05 07:40 51°20.689 2°42.156 15.6 40 7.5 98170 82
2004-05-05 07:41 51°20.622 2°42.062 15.8 25 7.5 98150 81
2004-05-05 07:42 51°20.587 2°42.098 14.6 117 7.5 98160 82
2004-05-05 07:43 51°20.613 2°42.19 11.8 112 7.4 98190 81
2004-05-05 07:44 51°20.651 2°42.315 10.4 118 7.3 98190 81
2004-05-05 07:45 51°20.662 2°42.404 12.4 77 7.3 98210 82
2004-05-05 07:46 51°20.619 2°42.437 14.7 18 7.4 98200 82
2004-05-05 07:47 51°20.556 2°42.361 13.9 290 7.4 98170 82
2004-05-05 07:48 51°20.574 2°42.23 12.5 222 7.3 98190 82
2004-05-05 07:49 51°20.619 2°42.19 11.1 147 7.3 98220 81
2004-05-05 07:50 51°20.639 2°42.211 13 117 7.3 98210 81
2004-05-05 07:51 51°20.646 2°42.252 11.4 118 7.3 98230 82
2004-05-05 07:52 51°20.658 2°42.297 11.8 112 7.4 98210 83
2004-05-05 07:53 51°20.673 2°42.34 14.1 121 7.4 98210 83
2004-05-05 07:54 51°20.685 2°42.387 14.5 99 7.4 98210 82
2004-05-05 07:55 51°20.676 2°42.434 16.7 112 7.3 98160 82
2004-05-05 07:56 51°20.659 2°42.48 15.1 64 7.3 98190 82
2004-05-05 07:57 51°20.597 2°42.484 16.9 352 7.3 98190 81
2004-05-05 07:58 51°20.562 2°42.369 8.7 259 7.3 98180 81
2004-05-05 07:59 51°20.605 2°42.231 11.5 242 7.3 98260 81
2004-05-05 08:00 51°20.673 2°42.069 8.1 255 7.3 98230 82
2004-05-05 08:01 51°20.742 2°41.867 10.2 278 7.4 98220 82
2004-05-05 08:02 51°20.855 2°41.564 17.1 272 7.4 98210 82
2004-05-05 08:03 51°21.015 2°41.293 5.7 260 7.4 98220 82
2004-05-05 08:04 51°21.227 2°41.091 6.4 224 7.4 98220 82
2004-05-05 08:05 51°21.426 2°40.988 6.1 222 7.3 98220 81
2004-05-05 08:06 51°21.63 2°40.876 6.2 224 7.4 98230 82
2004-05-05 08:07 51°21.849 2°40.762 8.3 225 7.3 98230 81
2004-05-05 08:08 51°22.057 2°40.665 6.2 220 7.2 98230 81
2004-05-05 08:09 51°22.261 2°40.587 4.5 207 7.2 98220 81
2004-05-05 08:10 51°22.494 2°40.537 3 173 7.6 98230 83
2004-05-05 08:11 51°22.706 2°40.528 3.9 189 8 98220 82
2004-05-05 08:12 51°22.915 2°40.505 4.6 183 8 98220 81
2004-05-05 08:13 51°23.126 2°40.505 4.9 167 8.1 98220 81
2004-05-05 08:14 51°23.343 2°40.486 7.2 180 8.3 98220 81
2004-05-05 08:15 51°23.556 2°40.464 3.3 214 8.3 98220 80
2004-05-05 08:16 51°23.769 2°40.435 4 191 8.3 98220 80
2004-05-05 08:17 51°23.978 2°40.431 4.7 171 8.4 98230 79
2004-05-05 08:18 51°24.183 2°40.462 7.7 158 8.5 98230 76
2004-05-05 08:19 51°24.387 2°40.489 4.5 187 8.3 98230 78
2004-05-05 08:20 51°24.601 2°40.507 5.1 189 8.2 98220 77
2004-05-05 08:21 51°24.803 2°40.523 7.7 171 8.1 98220 78
2004-05-05 08:22 51°25.007 2°40.542 4.2 210 8.2 98230 78
2004-05-05 08:23 51°25.217 2°40.546 5.3 205 8.5 98230 77
2004-05-05 08:24 51°25.42 2°40.558 2.8 178 8.7 98240 77
2004-05-05 08:25 51°25.623 2°40.636 5 149 8.6 98220 77
2004-05-05 08:26 51°25.812 2°40.745 9.7 136 8.3 98220 76
2004-05-05 08:27 51°25.998 2°40.881 9.7 157 8 98230 77
2004-05-05 08:28 51°26.175 2°41.011 8.2 150 7.8 98230 77
2004-05-05 08:29 51°26.343 2°41.189 10.8 134 7.7 98220 78
2004-05-05 08:30 51°26.489 2°41.396 10.2 118 7.7 98220 79
2004-05-05 08:31 51°26.607 2°41.648 11.1 104 7.7 98220 79
2004-05-05 08:32 51°26.709 2°41.925 11.3 104 7.7 98210 79
2004-05-05 08:33 51°26.812 2°42.182 8 106 7.7 98210 79
2004-05-05 08:34 51°26.922 2°42.45 8.1 99 7.7 98210 80
2004-05-05 08:35 51°27.029 2°42.714 10.3 102 7.7 98210 80
2004-05-05 08:36 51°27.116 2°43.002 10.8 98 7.7 98210 80
2004-05-05 08:37 51°27.213 2°43.315 9.6 114 7.6 98210 80
2004-05-05 08:38 51°27.3 2°43.606 12.2 112 7.6 98200 80
2004-05-05 08:39 51°27.349 2°43.949 11.9 83 7.6 98200 80
2004-05-05 08:40 51°27.329 2°44.275 12.9 84 7.8 98180 82
2004-05-05 08:41 51°27.226 2°44.566 19.5 48 7.7 98170 81
2004-05-05 08:42 51°27.044 2°44.747 18.6 35 7.7 98180 81
2004-05-05 08:43 51°26.838 2°44.905 20 34 7.7 98180 82
2004-05-05 08:44 51°26.642 2°45.074 21.5 32 7.6 98190 81
2004-05-05 08:45 51°26.447 2°45.249 20.8 45 7.5 98190 83
2004-05-05 08:46 51°26.257 2°45.426 21 27 7.2 98190 84
2004-05-05 08:47 51°26.046 2°45.634 18.4 38 7 98190 85
2004-05-05 08:48 51°25.952 2°45.945 15.1 84 7.1 98170 86
2004-05-05 08:49 51°25.986 2°46.256 12.1 106 7.2 98200 86
2004-05-05 08:50 51°26.085 2°46.538 11.4 112 7.1 98220 85
2004-05-05 08:51 51°26.183 2°46.82 9.3 111 7.2 98220 85
2004-05-05 08:52 51°26.278 2°47.103 12.2 104 7.3 98220 85
2004-05-05 08:53 51°26.378 2°47.384 13.6 105 7.3 98220 85
2004-05-05 08:54 51°26.474 2°47.659 11.3 96 7.3 98220 84
2004-05-05 08:55 51°26.569 2°47.939 9.6 98 7.3 98220 84
2004-05-05 08:56 51°26.663 2°48.218 10.5 116 7.4 98220 83
2004-05-05 08:57 51°26.769 2°48.486 10.9 122 7.5 98220 84
2004-05-05 08:58 51°26.924 2°48.687 8 119 7.5 98240 83
2004-05-05 08:59 51°27.084 2°48.876 10.5 137 7.5 98240 83
2004-05-05 09:00 51°27.27 2°48.998 6.9 176 7.6 98240 83
2004-05-05 09:01 51°27.475 2°49.035 4.7 188 7.6 98240 82
2004-05-05 09:02 51°27.683 2°49.065 4 190 7.9 98250 82
2004-05-05 09:03 51°27.889 2°49.103 6.9 164 7.8 98250 80
2004-05-05 09:04 51°28.092 2°49.147 4.2 202 7.7 98250 80
2004-05-05 09:05 51°28.303 2°49.093 5.1 196 7.8 98250 80
2004-05-05 09:06 51°28.513 2°49.034 4.2 182 7.8 98260 79
2004-05-05 09:07 51°28.729 2°48.999 6.7 166 8 98240 79
2004-05-05 09:08 51°28.93 2°48.987 7.7 159 8.4 98260 79
2004-05-05 09:09 51°29.131 2°49.051 7.7 170 8.2 98250 77
2004-05-05 09:10 51°29.333 2°49.152 6.6 147 8.2 98240 78
2004-05-05 09:11 51°29.535 2°49.247 6.9 149 8.1 98250 78
2004-05-05 09:12 51°29.734 2°49.351 7.9 152 8 98240 79
2004-05-05 09:13 51°29.929 2°49.472 5 156 7.9 98250 79
2004-05-05 09:14 51°30.104 2°49.625 8.6 124 8 98250 80
2004-05-05 09:15 51°30.223 2°49.88 10 118 8 98230 80
2004-05-05 09:16 51°30.304 2°50.171 13.4 95 8 98220 80
2004-05-05 09:17 51°30.366 2°50.489 14.1 91 7.9 98210 80
2004-05-05 09:18 51°30.434 2°50.803 15.5 100 7.8 98220 80
2004-05-05 09:19 51°30.509 2°51.109 15.3 99 7.9 98230 80
2004-05-05 09:20 51°30.524 2°51.442 17.7 82 7.9 98220 81
2004-05-05 09:21 51°30.46 2°51.773 20.4 56 7.8 98200 80
2004-05-05 09:22 51°30.351 2°52.071 21.4 53 7.8 98200 80
2004-05-05 09:23 51°30.194 2°52.329 19 32 7.9 98210 80
2004-05-05 09:24 51°30.005 2°52.514 20.9 26 8 98210 80
2004-05-05 09:25 51°29.816 2°52.702 20.8 36 8 98220 80
2004-05-05 09:26 51°29.669 2°52.936 19 65 8 98180 80
2004-05-05 09:27 51°29.674 2°53.254 16.8 83 8 98230 80
2004-05-05 09:28 51°29.743 2°53.567 14.1 90 8 98240 80
2004-05-05 09:29 51°29.821 2°53.871 14.2 103 8 98240 80
2004-05-05 09:30 51°29.892 2°54.177 14.9 96 8 98250 80
2004-05-05 09:31 51°29.96 2°54.483 16 85 8.1 98250 79
2004-05-05 09:32 51°30.029 2°54.789 12.1 97 8.1 98250 79
2004-05-05 09:33 51°30.102 2°55.098 12.8 89 8.1 98270 79
2004-05-05 09:34 51°30.175 2°55.407 13.7 99 8.1 98250 79
2004-05-05 09:35 51°30.296 2°55.664 9.7 110 8.1 98270 79
2004-05-05 09:36 51°30.467 2°55.846 7.6 134 8.2 98290 79
2004-05-05 09:37 51°30.666 2°55.936 6.7 152 8.1 98280 79
2004-05-05 09:38 51°30.872 2°56.036 6.1 148 8.1 98290 79
2004-05-05 09:39 51°31.077 2°56.133 8.3 161 8.1 98290 79
2004-05-05 09:40 51°31.272 2°56.261 8 131 8.1 98290 79
2004-05-05 09:41 51°31.467 2°56.373 6.8 138 8.2 98290 79
2004-05-05 09:42 51°31.662 2°56.473 5.4 148 8.1 98290 79
2004-05-05 09:43 51°31.866 2°56.577 5.6 138 8.1 98300 78
2004-05-05 09:44 51°32.061 2°56.69 6.8 144 8.1 98290 79
2004-05-05 09:45 51°32.252 2°56.827 8.3 140 8.2 98290 79
2004-05-05 09:46 51°32.442 2°56.973 9.7 142 8.2 98290 78
2004-05-05 09:47 51°32.62 2°57.144 8.2 135 8.3 98290 78
2004-05-05 09:48 51°32.798 2°57.322 10.5 136 8.3 98290 78
2004-05-05 09:49 51°32.961 2°57.537 8.5 130 8.3 98290 78
2004-05-05 09:50 51°33.113 2°57.78 9.8 113 8.3 98290 78
2004-05-05 09:51 51°33.245 2°58.029 11.8 113 8.2 98290 78
2004-05-05 09:52 51°33.386 2°58.279 11 122 8.2 98290 78
2004-05-05 09:53 51°33.513 2°58.548 9 115 8.2 98290 78
2004-05-05 09:54 51°33.63 2°58.825 12.5 117 8.3 98290 79
2004-05-05 09:55 51°33.753 2°59.097 12 106 8.3 98290 79
2004-05-05 09:56 51°33.869 2°59.385 11.2 112 8.3 98290 79
2004-05-05 09:57 51°33.991 2°59.662 9.2 99 8.3 98300 79
2004-05-05 09:58 51°34.107 2°59.941 12.8 98 8.3 98300 79
2004-05-05 09:59 51°34.229 3°0.215 10.5 119 8.2 98300 78
2004-05-05 10:00 51°34.35 3°0.485 9.1 116 8.3 98300 79
2004-05-05 10:01 51°34.467 3°0.755 10.8 116 8.3 98300 79
2004-05-05 10:02 51°34.582 3°1.039 13.7 113 8.4 98300 79
2004-05-05 10:03 51°34.564 3°1.372 19.6 58 8.4 98270 78
2004-05-05 10:04 51°34.382 3°1.598 22.7 32 8.4 98270 78
2004-05-05 10:05 51°34.15 3°1.578 18.8 354 8.4 98290 78
2004-05-05 10:06 51°33.925 3°1.453 18.2 353 8.5 98240 78
2004-05-05 10:07 51°33.708 3°1.321 20.4 354 8.6 98250 78
2004-05-05 10:08 51°33.48 3°1.178 19.6 348 8.5 98270 78
2004-05-05 10:09 51°33.264 3°1.04 18.3 351 8.5 98250 78
2004-05-05 10:10 51°33.047 3°0.903 19.6 354 8.5 98260 78
2004-05-05 10:11 51°32.828 3°0.766 19.8 355 8.4 98280 78
2004-05-05 10:12 51°32.605 3°0.625 21.2   8.4 98250 78
2004-05-05 10:13 51°32.393 3°0.488 21.4 355 8.4 98270 77
2004-05-05 10:14 51°32.166 3°0.346 21.2 356 8.4 98260 77
2004-05-05 10:15 51°31.946 3°0.209 19.4 355 8.4 98280 77
2004-05-05 10:16 51°31.727 3°0.074 19.9 354 8.4 98250 77
2004-05-05 10:17 51°31.509 2°59.938 19.7   8.4 98260 77
2004-05-05 10:18 51°31.293 2°59.804 19.8 355 8.4 98240 77
2004-05-05 10:19 51°31.077 2°59.672 20.5 354 8.5 98280 77
2004-05-05 10:20 51°30.861 2°59.552 19.4 353 8.5 98290 77
2004-05-05 10:21 51°30.649 2°59.432 19.9 356 8.5 98270 77
2004-05-05 10:22 51°30.44 2°59.314 19.1 355 8.5 98270 77
2004-05-05 10:23 51°30.217 2°59.192 20.4 355 8.5 98270 77
2004-05-05 10:24 51°30.003 2°59.074 17.9 350 8.6 98270 77
2004-05-05 10:25 51°29.791 2°58.954 17.8 350 8.6 98280 77
2004-05-05 10:26 51°29.578 2°58.833 18.4 350 8.7 98230 77
2004-05-05 10:27 51°29.366 2°58.711 18.9 347 8.6 98260 77
2004-05-05 10:28 51°29.155 2°58.588 20.1 350 8.6 98250 76
2004-05-05 10:29 51°28.944 2°58.463 22.2 347 8.7 98260 77
2004-05-05 10:30 51°28.734 2°58.34 20.2 353 8.7 98270 77
2004-05-05 10:31 51°28.521 2°58.213 20.4 349 8.8 98280 78
2004-05-05 10:32 51°28.31 2°58.088 20.4 1 8.7 98270 77
2004-05-05 10:33 51°28.098 2°57.964 20 357 8.7 98280 76
2004-05-05 10:34 51°27.888 2°57.846 21.9 353 8.7 98270 77
2004-05-05 10:35 51°27.675 2°57.723 22.2 348 8.7 98260 77
2004-05-05 10:36 51°27.463 2°57.597 19.5 355 8.7 98260 78
2004-05-05 10:37 51°27.249 2°57.474 20.5 357 8.7 98270 77
2004-05-05 10:38 51°27.036 2°57.351 19.4 353 8.7 98290 77
2004-05-05 10:39 51°26.822 2°57.233 21.5 354 8.7 98280 77
2004-05-05 10:40 51°26.607 2°57.117 20.7 352 8.7 98230 77
2004-05-05 10:41 51°26.393 2°57.003 17.5 352 8.6 98240 77
2004-05-05 10:42 51°26.178 2°56.894 20.2 359 8.7 98290 77
2004-05-05 10:43 51°25.966 2°56.785 20.5 347 8.6 98260 78
2004-05-05 10:44 51°25.753 2°56.678 19.2 354 8.6 98270 78
2004-05-05 10:45 51°25.541 2°56.567 22.5 354 8.6 98280 78
2004-05-05 10:46 51°25.332 2°56.451 20.2 353 8.6 98270 77
2004-05-05 10:47 51°25.125 2°56.338 23.3 355 8.6 98270 76
2004-05-05 10:48 51°24.92 2°56.224 20.4 352 8.6 98260 75
2004-05-05 10:49 51°24.718 2°56.112 19.3 350 8.7 98290 77
2004-05-05 10:50 51°24.509 2°56.042 19.3 356 8.8 98270 77
2004-05-05 10:51 51°24.292 2°56.018 17.9 356 8.8 98280 77
2004-05-05 10:52 51°24.074 2°55.992 17.2 356 8.8 98260 77
2004-05-05 10:53 51°23.855 2°55.967 18.5 1 8.8 98270 77
2004-05-05 10:54 51°23.64 2°55.904 17.1 348 8.8 98270 77
2004-05-05 10:55 51°23.433 2°55.792 19.1 350 8.8 98270 76
2004-05-05 10:56 51°23.231 2°55.67 19.7 353 8.8 98260 76
2004-05-05 10:57 51°23.03 2°55.552 19.7 345 8.8 98240 76
2004-05-05 10:58 51°22.829 2°55.436 18.6 345 9 98250 77
2004-05-05 10:59 51°22.627 2°55.323 18.1 349 8.9 98280 76
2004-05-05 11:00 51°22.427 2°55.211 20 348 8.9 98280 77
2004-05-05 11:01 51°22.228 2°55.102 17.9 352 8.8 98260 76
2004-05-05 11:02 51°22.031 2°54.993 16.4 350 8.8 98280 76
2004-05-05 11:03 51°21.834 2°54.886 16.8 346 8.9 98250 77
2004-05-05 11:04 51°21.638 2°54.782 18.1 341 9 98270 78
2004-05-05 11:05 51°21.438 2°54.695 18.5 357 8.9 98280 77
2004-05-05 11:06 51°21.245 2°54.589 20.3 352 8.9 98270 77
2004-05-05 11:07 51°21.06 2°54.461 19.2 349 8.8 98270 77
2004-05-05 11:08 51°20.872 2°54.334 20.8 351 8.9 98270 77
2004-05-05 11:09 51°20.685 2°54.211 19.1 348 8.8 98240 77
2004-05-05 11:10 51°20.5 2°54.082 19.3 345 8.9 98250 78
2004-05-05 11:11 51°20.314 2°53.959 16.9 345 8.9 98250 77
2004-05-05 11:12 51°20.129 2°53.832 17.1 347 8.9 98250 78
2004-05-05 11:13 51°19.943 2°53.705 17.4 345 8.9 98240 77
2004-05-05 11:14 51°19.757 2°53.579 17.1 341 8.9 98240 78
2004-05-05 11:15 51°19.57 2°53.453 17 346 8.8 98260 77
2004-05-05 11:16 51°19.382 2°53.327 17.8 337 8.9 98260 78
2004-05-05 11:17 51°19.195 2°53.202 17.5 344 8.9 98240 77
2004-05-05 11:18 51°19.008 2°53.079 18.2 344 8.9 98250 77
2004-05-05 11:19 51°18.822 2°52.958 17.6 345 8.9 98250 77
2004-05-05 11:20 51°18.636 2°52.845 18.1 349 8.9 98250 77
2004-05-05 11:21 51°18.442 2°52.757 18.5 350 9 98260 77
2004-05-05 11:22 51°18.25 2°52.668 17.9 347 9 98240 77
2004-05-05 11:23 51°18.059 2°52.578 17.1 347 9 98260 77
2004-05-05 11:24 51°17.862 2°52.508 17.1 348 9 98260 77
2004-05-05 11:25 51°17.666 2°52.448 18.5 348 9.1 98270 78
2004-05-05 11:26 51°17.47 2°52.388 16.5 347 9.1 98260 77
2004-05-05 11:27 51°17.27 2°52.349 18.2 359 9.1 98250 77
2004-05-05 11:28 51°17.069 2°52.449 19.1 12 9.1 98280 76
2004-05-05 11:29 51°16.874 2°52.588 15.4 27 9.1 98270 75
2004-05-05 11:30 51°16.779 2°52.892 17.9 7 9.2 98260 76
2004-05-05 11:31 51°16.661 2°52.77 11.9 300 9.3 98240 76
2004-05-05 11:32 51°16.832 2°52.622 4.5 207 9.4 98320 76
2004-05-05 11:33 51°16.999 2°52.7 8.8 132 9.4 98320 75
2004-05-05 11:34 51°17.046 2°52.789 11.4 101 9.4 98290 75
2004-05-05 11:35 51°17.074 2°52.828 9.8 111 9.4 98300 75
2004-05-05 11:36 51°17.104 2°52.873 10.1 116 9.4 98300 76
2004-05-05 11:37 51°17.136 2°52.923 10.6 121 9.3 98300 75
2004-05-05 11:38 51°17.169 2°52.976 11.2 117 9.3 98300 75
2004-05-05 11:39 51°17.199 2°53.033 11.2 100 9.3 98310 76
2004-05-05 11:40 51°17.229 2°53.091 10.1 104 9.3 98300 75
2004-05-05 11:41 51°17.257 2°53.149 9.9 88 9.3 98300 76
2004-05-05 11:42 51°17.285 2°53.208 10.1 94 9.3 98300 76
2004-05-05 11:43 51°17.313 2°53.264 8.5 84 9.5 98310 77
2004-05-05 11:44 51°17.339 2°53.32 9.9 82 9.5 98310 77
2004-05-05 11:45 51°17.367 2°53.376 10.6 88 9.4 98310 76
2004-05-05 11:46 51°17.395 2°53.43 10.7 91 9.4 98310 77
2004-05-05 11:47 51°17.423 2°53.484 8.2 95 9.4 98310 76
2004-05-05 11:48 51°17.451 2°53.54 11 84 9.4 98310 76
2004-05-05 11:49 51°17.48 2°53.596 8.6 81 9.4 98310 76
2004-05-05 11:50 51°17.491 2°53.704 10.9 33 9.4 98310 76
2004-05-05 11:51 51°17.412 2°53.794 13.5 354 9.4 98310 76
2004-05-05 11:52 51°17.228 2°53.873 16.1 7 9.5 98290 75
2004-05-05 11:53 51°17.031 2°53.943 18.1 5 9.5 98290 75
2004-05-05 11:54 51°16.824 2°54.012 16.5 4 9.6 98260 75
2004-05-05 11:55 51°16.624 2°54.057 16.5 360 9.7 98280 75
2004-05-05 11:56 51°16.43 2°54.091 16.8 359 9.7 98270 74
2004-05-05 11:57 51°16.224 2°54.117 17.5 356 9.8 98270 75
2004-05-05 11:58 51°16.022 2°54.143 19.2 355 9.8 98270 73
2004-05-05 11:59 51°15.821 2°54.168 18.5 1 9.8 98270 74
2004-05-05 12:00 51°15.617 2°54.219 17.8 7 9.8 98290 73
2004-05-05 12:01 51°15.42 2°54.283 16.3 8 9.8 98290 73
2004-05-05 12:02 51°15.22 2°54.365 18.2 3 9.8 98270 73
2004-05-05 12:03 51°15.026 2°54.455 16.9 6 9.7 98280 72
2004-05-05 12:04 51°14.832 2°54.605 16.4 358 9.7 98290 72
2004-05-05 12:05 51°14.641 2°54.759 15.1 16 9.7 98280 72
2004-05-05 12:06 51°14.462 2°54.945 15.2 17 9.7 98300 72
2004-05-05 12:07 51°14.302 2°55.173 12.9 20 9.7 98300 72
2004-05-05 12:08 51°14.19 2°55.37 12.8 20 9.8 98320 72
2004-05-05 12:09 51°14.072 2°55.473 12.3 12 9.9 98320 72
2004-05-05 12:10 51°13.952 2°55.555 13 11 9.9 98300 71
2004-05-05 12:11 51°13.841 2°55.633 13.5 24 10 98310 71
2004-05-05 12:12 51°13.74 2°55.731 8.6 23 10 98330 70
2004-05-05 12:13 51°13.68 2°55.837 5 55 10 98330 70
2004-05-05 12:14 51°13.64 2°55.946 8.3 43 10.2 98340 70
2004-05-05 12:15 51°13.608 2°56.053 8.7 33 10.2 98340 70